Location: Unspecified
(0.0000°N, 0.0000°E)
Time: 03:07:58
(UTC+00:00)

X-37B - Pass Details

Date: 02 March 2021
Orbit: 383 x 391 km, 45.0° (Epoch: 10 February)

Event Time Altitude Azimuth Distance (km) Brightness Sun altitude
Rises 19:47:59 0° 212° (SSW) 2,274 5.0 -23.8°
Reaches altitude 10° 19:50:08 10° 204° (SSW) 1,418 3.8 -24.3°
Enters shadow 19:50:42 14° 200° (SSW) 1,204 3.3 -24.5°
